Regional Weather Roundup
Issued by NWS Goodland, KS

Home | Current Version | Previous Version | Graphics & Text | Print | Product List | Glossary On
Versions: 1 2 3 4 5 6 7 8 9 10 11 12 13 14 15 16 17 18 19 20 21 22 23 24 25 26 27 28 29 30 31 32 33 34 35 36 37 38 39 40 41 42 43 44 45 46 47 48 49 50
850
ASUS43 KGLD 280208
RWRGLD

GOODLAND FORECAST AREA HOURLY WEATHER ROUNDUP
NATIONAL WEATHER SERVICE GOODLAND KS
800 PM MDT TUE SEP 27 2016

...OFFICIAL OBSERVATIONS...

CITY           SKY/WX    TMP DP  RH WIND       PRES   REMARKS
GOODLAND KS    CLEAR     63  38  39 CALM      30.04R
HILL CITY KS   CLEAR     59  54  83 W5        29.95S
IMPERIAL NEB   CLEAR     66  41  40 NW3       30.02R
MCCOOK NEB     CLEAR     64  44  48 W7        29.96R
AKRON CO       CLEAR     64  24  21 CALM      30.11R
BURLINGTON CO  CLEAR     63  38  39 SW7       30.07R
LIMON CO       CLEAR     56  23  27 N3        30.15R
$$

...UNOFFICIAL OBSERVATIONS...

CITY           SKY/WX    TMP DP  RH WIND       PRES   REMARKS
COLBY KS       CLEAR     73  39  29 E3        30.02S
LENORA KS        N/A     73  32  22 MISG        N/A
NORTON KS      CLEAR     64  41  42 SW6       29.94R
SHARON SPRINGS   N/A     66  39  37 SW8         N/A
KIT CARSON CO    N/A     65  37  34 CALM        N/A
$$




USA.gov is the U.S. government's official web portal to all federal, state and local government web resources and services.